Regional Weather Roundup
Issued by NWS Midland/Odessa, TX

Skip options and go directly to product.
Home | Oldest Version | Next Version | Current Version | All | Text Only | Save Text | Print | Product List | Glossary On

Skip product version selection by date and time.   
287
ASUS44 KMAF 271110
RWRMAF
MIDLAND AREA WEATHER ROUNDUP
NATIONAL WEATHER SERVICE MIDLAND TX
600 AM CDT FRI MAY 27 2016

...IN SOUTHWEST TEXAS AND SOUTHEAST NEW MEXICO...

CITY           SKY/WX    TMP DP  RH WIND       PRES   REMARKS
ALPINE         CLEAR     54  20  26 W5        29.98R
ANDREWS        FAIR      61  22  22 W9        29.81R
ARTESIA        CLEAR     55  16  21 W12       29.83S
BIG SPRING     CLEAR     60  54  80 CALM      29.78R
CARLSBAD       CLEAR     61  14  16 W12       29.82R
DRYDEN           N/A     69  41  36 W9        29.73R
FORT STOCKTON  CLEAR     68  18  14 W12       29.81R
GUAD PASS      NOT AVBL
HOBBS          CLEAR     57  16  19 W12       29.83R
MARFA          CLEAR     47  17  30 E3        29.96R
MIDLAND AIRPK  CLEAR     65  25  21 W9        29.79R
MIDLAND INTL   CLEAR     65  24  21 NW10      29.79R
ODESSA         CLEAR     65  22  19 NW10      29.80R
PECOS          CLEAR     60  19  20 W8        29.80R
PRESIDIO       FAIR      71  12  10 CALM      29.86R
SEMINOLE       CLEAR     56  24  28 W7        29.82R
SNYDER           N/A     61  60  97 SW3       29.74R FOG
WINK           CLEAR     57  24  28 NW9       29.79R
$$
...OTHER STATIONS IN TEXAS...

CITY           SKY/WX    TMP DP  RH WIND       PRES   REMARKS
ABILENE        MOCLDY    61  61 100 SE13      29.73R
AMARILLO       CLEAR     49  41  74 NW9       29.77F
AUSTIN         CLOUDY    70  68  93 SE10      29.73S
BROWNSVILLE    CLOUDY    81  79  94 S17G26    29.70R
CORPUS CHRISTI CLOUDY    80  77  90 SE12      29.69F
DALLAS FTW     TSTM      67  64  90 W10G17    29.80R
DEL RIO        CLEAR     70  65  84 S3        29.66R
EL PASO        CLEAR     61  19  19 VRB3      29.91R
HOUSTON INT    TSTM      65  65 100 SE13      29.79F
LUBBOCK        PTCLDY    54  33  45 N6        29.75R
SAN ANGELO     CLEAR     63  62  97 CALM      29.72R
SAN ANTONIO    CLOUDY    76  73  91 E13       29.73R
WACO           TSTM      63  61  93 E5        29.87S FOG
WICHITA FALLS  NOT AVBL
$$
...OTHER LOCATIONS IN NEW MEXICO...

CITY           SKY/WX    TMP DP  RH WIND       PRES   REMARKS
ALAMAGORDO     CLEAR     55  18  22 NE5       29.91R
ALBUQUERQUE    PTCLDY    46  22  38 SE8       29.92R
CANNON AFB     CLEAR     47  31  54 N7        29.83R
CLOVIS         CLEAR     46  32  57 N8        29.82R
HOLLOMAN AFB   CLEAR     49  15  25 E9        29.89R
ROSWELL        CLEAR     55  17  22 W8        29.83R
RUIDOSO          N/A     46  21  36 SW8       29.98F
SANTA FE       PTCLDY    45  24  43 W6        29.90R
TRUTH OR CONSE CLEAR     56  26  31 NW8       29.92S
TUCUMCARI      CLEAR     45  36  70 NE3       29.82R
$$

USA.gov is the U.S. government's official web portal to all federal, state and local government web resources and services.